| time (UTC) | temp F | wind direction | speed knots | gust knots | rain 1hr in | rain 24hr in | rain mn in | humidity % | barometer mb |
| 20260904071852 | 71 | 229 | 7.8 | 10.4 | 0.00 | 0.00 | 0.00 | ||
| 20260904071449 | 70 | 223 | 7.8 | 12.2 | 0.00 | 0.00 | 0.00 | ||
| 20260904071048 | 71 | 234 | 6.1 | 8.7 | 0.00 | 0.00 | 0.00 | ||
| 20260904070646 | 70 | 257 | 7.0 | 11.3 | 0.00 | 0.00 | 0.00 | ||
| 20260904070244 | 70 | 254 | 7.8 | 10.4 | 0.00 | 0.00 | 0.00 | ||
| 20260904065843 | 70 | 246 | 6.1 | 8.7 | 0.00 | 0.00 | 0.00 | ||
| 20260904065441 | 70 | 249 | 7.8 | 9.6 | 0.00 | 0.00 | 0.00 | ||
| 20260904065039 | 70 | 246 | 4.3 | 10.4 | 0.00 | 0.00 | 0.00 | ||
| 20260904064638 | 70 | 248 | 5.2 | 7.8 | 0.00 | 0.00 | 0.00 | ||
| 20260904063829 | 70 | 225 | 5.2 | 8.7 | 0.00 | 0.00 | 0.00 | ||
| 20260904063426 | 70 | 229 | 7.0 | 10.4 | 0.00 | 0.00 | 0.00 | ||
| 20260904063025 | 70 | 223 | 3.5 | 5.2 | 0.00 | 0.00 | 0.00 | ||
| 20260904062624 | 70 | 216 | 4.3 | 8.7 | 0.00 | 0.00 | 0.00 | ||
| 20260904062222 | 70 | 229 | 5.2 | 8.7 | 0.00 | 0.00 | 0.00 | ||
| 20260904061820 | 70 | 235 | 7.0 | 8.7 | 0.00 | 0.00 | 0.00 | ||
| 20260904061418 | 69 | 218 | 6.1 | 8.7 | 0.00 | 0.00 | 0.00 | ||
| 20260904061017 | 69 | 222 | 4.3 | 6.1 | 0.00 | 0.00 | 0.00 | ||
| 20260904060616 | 69 | 229 | 5.2 | 7.8 | 0.00 | 0.00 | 0.00 | ||
| 20260904060214 | 69 | 230 | 6.1 | 8.7 | 0.00 | 0.00 | 0.00 | ||
| 20260904055805 | 69 | 230 | 6.1 | 7.8 | 0.00 | 0.00 | 0.00 | ||
| 20260904055403 | 69 | 219 | 5.2 | 8.7 | 0.00 | 0.00 | 0.00 | ||
| 20260904055002 | 69 | 218 | 4.3 | 7.8 | 0.00 | 0.00 | 0.00 | ||
| 20260904054601 | 69 | 224 | 6.1 | 8.7 | 0.00 | 0.00 | 0.00 | ||
| 20260904054158 | 68 | 229 | 6.1 | 8.7 | 0.00 | 0.00 | 0.00 | ||
| 20260904053757 | 69 | 225 | 5.2 | 7.8 | 0.00 | 0.00 | 0.00 | ||
| 20260904053355 | 69 | 218 | 4.3 | 7.0 | 0.00 | 0.00 | 0.00 | ||
| 20260904052954 | 69 | 220 | 3.5 | 6.1 | 0.00 | 0.00 | 0.00 | ||
| 20260904052552 | 69 | 221 | 5.2 | 8.7 | 0.00 | 0.00 | 0.00 | ||
| 20260904052150 | 69 | 213 | 2.6 | 4.3 | 0.00 | 0.00 | 0.00 | ||
| 20260904051743 | 69 | 223 | 5.2 | 7.8 | 0.00 | 0.00 | 0.00 | ||
| 20260904051341 | 69 | 223 | 4.3 | 7.8 | 0.00 | 0.00 | 0.00 | ||
| 20260904050938 | 69 | 223 | 5.2 | 9.6 | 0.00 | 0.00 | 0.00 | ||
| 20260904050537 | 69 | 222 | 4.3 | 7.0 | 0.00 | 0.00 | 0.00 | ||
| 20260904050136 | 68 | 220 | 4.3 | 7.8 | 0.00 | 0.00 | 0.00 | ||
| 20260904045333 | 68 | 227 | 7.0 | 10.4 | 0.00 | 0.00 | 0.00 | ||
| 20260904044931 | 68 | 235 | 7.0 | 10.4 | 0.00 | 0.00 | 0.00 | ||
| 20260904044529 | 68 | 225 | 6.1 | 11.3 | 0.00 | 0.00 | 0.00 | ||
| 20260904044128 | 68 | 215 | 6.1 | 9.6 | 0.00 | 0.00 | 0.00 | ||
| 20260904043317 | 68 | 226 | 4.3 | 7.8 | 0.00 | 0.00 | 0.00 | ||
| 20260904042916 | 69 | 215 | 4.3 | 8.7 | 0.00 | 0.00 | 0.00 | ||
| 20260904042515 | 68 | 223 | 4.3 | 8.7 | 0.00 | 0.00 | 0.00 | ||
| 20260904042113 | 68 | 224 | 4.3 | 6.1 | 0.00 | 0.00 | 0.00 | ||
| 20260904041711 | 68 | 234 | 3.5 | 7.0 | 0.00 | 0.00 | 0.00 | ||
| 20260904041309 | 68 | 235 | 3.5 | 5.2 | 0.00 | 0.00 | 0.00 | ||
| 20260904040908 | 68 | 234 | 3.5 | 4.3 | 0.00 | 0.00 | 0.00 | ||
| 20260904040507 | 68 | 242 | 5.2 | 8.7 | 0.00 | 0.00 | 0.00 | ||
| 20260904040104 | 68 | 244 | 4.3 | 6.1 | 0.00 | 0.00 | 0.00 | ||
| 20260904035656 | 67 | 241 | 4.3 | 7.8 | 0.00 | 0.00 | 0.00 | ||
| 20260904035254 | 67 | 248 | 5.2 | 7.8 | 0.00 | 0.00 | 0.00 | ||
| 20260904034853 | 67 | 248 | 5.2 | 7.8 | 0.00 | 0.00 | 0.00 | ||
| 20260904034452 | 68 | 242 | 4.3 | 7.8 | 0.00 | 0.00 | 0.00 | ||
| 20260904034049 | 68 | 236 | 4.3 | 7.0 | 0.00 | 0.00 | 0.00 | ||
| 20260904033648 | 68 | 242 | 4.3 | 7.0 | 0.00 | 0.00 | 0.00 | ||
| 20260904033246 | 68 | 235 | 4.3 | 7.8 | 0.00 | 0.00 | 0.00 | ||
| 20260904032845 | 68 | 234 | 4.3 | 7.0 | 0.00 | 0.00 | 0.00 | ||
| 20260904032443 | 68 | 236 | 4.3 | 7.8 | 0.00 | 0.00 | 0.00 | ||
| 20260904032042 | 68 | 247 | 3.5 | 5.2 | 0.00 | 0.00 | 0.00 | ||
| 20260904031634 | 68 | 222 | 2.6 | 5.2 | 0.00 | 0.00 | 0.00 | ||
| 20260904031232 | 68 | 233 | 4.3 | 7.0 | 0.00 | 0.00 | 0.00 | ||
| 20260904030830 | 68 | 239 | 3.5 | 7.0 | 0.00 | 0.00 | 0.00 | ||
| 20260904030429 | 68 | 249 | 4.3 | 7.8 | 0.00 | 0.00 | 0.00 | ||
| 20260904030027 | 68 | 244 | 5.2 | 8.7 | 0.00 | 0.00 | 0.00 | ||
| 20260904025626 | 68 | 245 | 5.2 | 7.0 | 0.00 | 0.00 | 0.00 | ||
| 20260904025223 | 68 | 250 | 5.2 | 7.0 | 0.00 | 0.00 | 0.00 | ||
| 20260904024822 | 68 | 259 | 3.5 | 5.2 | 0.00 | 0.00 | 0.00 | ||
| 20260904024421 | 68 | 248 | 4.3 | 6.1 | 0.00 | 0.00 | 0.00 | ||
| 20260904024019 | 68 | 249 | 4.3 | 6.1 | 0.00 | 0.00 | 0.00 | ||
| 20260904023611 | 68 | 239 | 5.2 | 7.8 | 0.00 | 0.00 | 0.00 | ||
| 20260904023208 | 68 | 250 | 4.3 | 6.1 | 0.00 | 0.00 | 0.00 | ||
| 20260904022807 | 68 | 248 | 4.3 | 7.0 | 0.00 | 0.00 | 0.00 | ||
| 20260904022406 | 68 | 241 | 5.2 | 7.0 | 0.00 | 0.00 | 0.00 | ||
| 20260904022004 | 68 | 237 | 5.2 | 7.0 | 0.00 | 0.00 | 0.00 | ||
| 20260904021602 | 68 | 238 | 3.5 | 5.2 | 0.00 | 0.00 | 0.00 | ||
| 20260904020759 | 68 | 244 | 4.3 | 6.1 | 0.00 | 0.00 | 0.00 | ||
| 20260904020358 | 68 | 241 | 4.3 | 7.0 | 0.00 | 0.00 | 0.00 | ||
| 20260904015955 | 68 | 243 | 5.2 | 7.8 | 0.00 | 0.00 | 0.00 | ||
| 20260904015547 | 68 | 229 | 6.1 | 8.7 | 0.00 | 0.00 | 0.00 | ||
| 20260904015146 | 68 | 228 | 5.2 | 8.7 | 0.00 | 0.00 | 0.00 | ||
| 20260904014745 | 69 | 232 | 5.2 | 8.7 | 0.00 | 0.00 | 0.00 | ||
| 20260904014342 | 69 | 232 | 4.3 | 7.8 | 0.00 | 0.00 | 0.00 | ||
| 20260904013941 | 69 | 225 | 3.5 | 7.0 | 0.00 | 0.00 | 0.00 | ||
| 20260904013540 | 68 | 234 | 5.2 | 8.7 | 0.00 | 0.00 | 0.00 | ||
| 20260904013138 | 68 | 233 | 5.2 | 7.8 | 0.00 | 0.00 | 0.00 | ||
| 20260904012737 | 68 | 230 | 5.2 | 8.7 | 0.00 | 0.00 | 0.00 | ||
| 20260904012335 | 68 | 237 | 4.3 | 7.8 | 0.00 | 0.00 | 0.00 | ||
| 20260904011933 | 68 | 230 | 5.2 | 7.8 | 0.00 | 0.00 | 0.00 | ||
| 20260904011525 | 68 | 242 | 4.3 | 10.4 | 0.00 | 0.00 | 0.00 | ||
| 20260904011123 | 69 | 238 | 4.3 | 7.8 | 0.00 | 0.00 | 0.00 | ||
| 20260904010721 | 69 | 227 | 4.3 | 7.0 | 0.00 | 0.00 | 0.00 | ||
| 20260904010320 | 69 | 223 | 5.2 | 8.7 | 0.00 | 0.00 | 0.00 | ||
| 20260904005918 | 69 | 229 | 4.3 | 7.8 | 0.00 | 0.00 | 0.00 | ||
| 20260904005517 | 69 | 229 | 6.1 | 11.3 | 0.00 | 0.00 | 0.00 | ||
| 20260904005114 | 69 | 231 | 6.1 | 7.8 | 0.00 | 0.00 | 0.00 | ||
| 20260904004713 | 69 | 241 | 4.3 | 7.0 | 0.00 | 0.00 | 0.00 | ||
| 20260904004312 | 69 | 219 | 4.3 | 7.8 | 0.00 | 0.00 | 0.00 | ||
| 20260904003910 | 69 | 232 | 5.2 | 9.6 | 0.00 | 0.00 | 0.00 | ||
| 20260904003501 | 69 | 220 | 5.2 | 9.6 | 0.00 | 0.00 | 0.00 | ||
| 20260904003059 | 69 | 230 | 4.3 | 7.8 | 0.00 | 0.00 | 0.00 | ||
| 20260904002658 | 69 | 231 | 4.3 | 8.7 | 0.00 | 0.00 | 0.00 | ||
| 20260904002257 | 69 | 213 | 5.2 | 9.6 | 0.00 | 0.00 | 0.00 | ||
| 20260904001855 | 68 | 211 | 4.3 | 11.3 | 0.00 | 0.00 | 0.00 | ||
| 20260904001453 | 69 | 215 | 5.2 | 7.8 | 0.00 | 0.00 | 0.00 | ||
| 20260904001052 | 69 | 226 | 5.2 | 7.8 | 0.00 | 0.00 | 0.00 | ||
| 20260904000650 | 69 | 235 | 4.3 | 7.0 | 0.00 | 0.00 | 0.00 | ||
| 20260904000249 | 69 | 232 | 5.2 | 7.8 | 0.00 | 0.00 | 0.00 | ||
| 20260903235846 | 69 | 233 | 4.3 | 7.0 | 0.00 | 0.00 | 0.00 | ||
| 20260903235437 | 69 | 233 | 4.3 | 7.8 | 0.00 | 0.00 | 0.00 | ||
| 20260903235036 | 69 | 223 | 5.2 | 7.8 | 0.00 | 0.00 | 0.00 | ||
| 20260903234231 | 69 | 214 | 4.3 | 8.7 | 0.00 | 0.00 | 0.00 | ||
| 20260903233830 | 70 | 205 | 5.2 | 10.4 | 0.00 | 0.00 | 0.00 | ||
| 20260903233027 | 70 | 219 | 3.5 | 7.8 | 0.00 | 0.00 | 0.00 | ||
| 20260903232625 | 70 | 220 | 4.3 | 8.7 | 0.00 | 0.00 | 0.00 | ||
| 20260903232224 | 69 | 223 | 4.3 | 7.0 | 0.00 | 0.00 | 0.00 | ||
| 20260903231822 | 69 | 226 | 6.1 | 9.6 | 0.00 | 0.00 | 0.00 | ||
| 20260903231414 | 69 | 234 | 6.1 | 8.7 | 0.00 | 0.00 | 0.00 | ||
| 20260903231012 | 70 | 229 | 5.2 | 7.8 | 0.00 | 0.00 | 0.00 | ||
| 20260903230610 | 69 | 239 | 5.2 | 7.8 | 0.00 | 0.00 | 0.00 | ||
| 20260903230209 | 69 | 229 | 5.2 | 8.7 | 0.00 | 0.00 | 0.00 | ||
| 20260903225807 | 69 | 225 | 4.3 | 7.0 | 0.00 | 0.00 | 0.00 | ||
| 20260903225406 | 69 | 230 | 5.2 | 7.0 | 0.00 | 0.00 | 0.00 | ||
| 20260903225003 | 69 | 229 | 4.3 | 7.8 | 0.00 | 0.00 | 0.00 | ||
| 20260903224602 | 70 | 223 | 2.6 | 7.0 | 0.00 | 0.00 | 0.00 | ||
| 20260903224201 | 69 | 215 | 3.5 | 8.7 | 0.00 | 0.00 | 0.00 | ||
| 20260903223759 | 68 | 188 | 1.7 | 4.3 | 0.00 | 0.00 | 0.00 | ||
| 20260903223350 | 69 | 180 | 1.7 | 3.5 | 0.00 | 0.00 | 0.00 | ||
| 20260903222948 | 68 | 180 | 1.7 | 3.5 | 0.00 | 0.00 | 0.00 | ||
| 20260903222547 | 69 | 188 | 1.7 | 4.3 | 0.00 | 0.00 | 0.00 | ||
| 20260903222146 | 67 | 202 | 0.9 | 1.7 | 0.00 | 0.00 | 0.00 | ||
| 20260903221743 | 67 | 186 | 2.6 | 3.5 | 0.00 | 0.00 | 0.00 | ||
| 20260903221342 | 66 | 168 | 1.7 | 3.5 | 0.00 | 0.00 | 0.00 | ||
| 20260903220940 | 66 | 164 | 1.7 | 2.6 | 0.00 | 0.00 | 0.00 | ||
| 20260903220539 | 66 | 158 | 0.9 | 1.7 | 0.00 | 0.00 | 0.00 | ||
| 20260903220138 | 66 | 157 | 0.9 | 1.7 | 0.00 | 0.00 | 0.00 | ||
| 20260903215327 | 67 | 141 | 1.7 | 2.6 | 0.00 | 0.00 | 0.00 | ||
| 20260903214926 | 67 | 135 | 0.9 | 2.6 | 0.00 | 0.00 | 0.00 | ||
| 20260903214525 | 66 | 139 | 1.7 | 3.5 | 0.00 | 0.00 | 0.00 | ||
| 20260903214123 | 66 | 157 | 2.6 | 3.5 | 0.00 | 0.00 | 0.00 | ||
| 20260903213721 | 66 | 157 | 0.9 | 3.5 | 0.00 | 0.00 | 0.00 | ||
| 20260903213320 | 67 | 157 | 0.9 | 2.6 | 0.00 | 0.00 | 0.00 | ||
| 20260903212918 | 67 | 169 | 2.6 | 4.3 | 0.00 | 0.00 | 0.00 | ||
| 20260903212516 | 66 | 186 | 0.9 | 3.5 | 0.00 | 0.00 | 0.00 | ||
| 20260903212115 | 66 | 180 | 0.9 | 1.7 | 0.00 | 0.00 | 0.00 | ||
| 20260903211713 | 66 | 180 | 0.9 | 1.7 | 0.00 | 0.00 | 0.00 | ||
| 20260903211305 | 66 | 180 | 0.9 | 2.6 | 0.00 | 0.00 | 0.00 | ||
| 20260903210902 | 65 | 180 | 0.9 | 2.6 | 0.00 | 0.00 | 0.00 | ||
| 20260903210501 | 65 | 180 | 0.9 | 1.7 | 0.00 | 0.00 | 0.00 | ||
| 20260903210100 | 66 | 180 | 1.7 | 3.5 | 0.00 | 0.00 | 0.00 | ||
| 20260903205658 | 65 | 180 | 1.7 | 1.7 | 0.00 | 0.00 | 0.00 | ||
| 20260903205257 | 66 | 180 | 1.7 | 3.5 | 0.00 | 0.00 | 0.00 | ||
| 20260903204854 | 66 | 180 | 1.7 | 2.6 | 0.00 | 0.00 | 0.00 | ||
| 20260903204453 | 66 | 180 | 2.6 | 3.5 | 0.00 | 0.00 | 0.00 | ||
| 20260903203650 | 68 | 157 | 1.7 | 3.5 | 0.00 | 0.00 | 0.00 | ||
| 20260903203241 | 68 | 157 | 2.6 | 4.3 | 0.00 | 0.00 | 0.00 | ||
| 20260903202839 | 68 | 180 | 2.6 | 5.2 | 0.00 | 0.00 | 0.00 | ||
| 20260903202438 | 68 | 171 | 2.6 | 4.3 | 0.00 | 0.00 | 0.00 | ||
| 20260903202037 | 68 | 180 | 2.6 | 3.5 | 0.00 | 0.00 | 0.00 | ||
| 20260903201635 | 69 | 180 | 1.7 | 2.6 | 0.00 | 0.00 | 0.00 | ||
| 20260903201234 | 69 | 180 | 2.6 | 3.5 | 0.00 | 0.00 | 0.00 | ||
| 20260903200832 | 70 | 183 | 1.7 | 3.5 | 0.00 | 0.00 | 0.00 | ||
| 20260903200431 | 70 | 202 | 1.7 | 3.5 | 0.00 | 0.00 | 0.00 | ||
| 20260903195627 | 68 | 180 | 2.6 | 3.5 | 0.00 | 0.00 | 0.00 | ||
| 20260903195219 | 69 | 180 | 2.6 | 3.5 | 0.00 | 0.00 | 0.00 | ||
| 20260903194817 | 69 | 185 | 2.6 | 3.5 | 0.00 | 0.00 | 0.00 | ||
| 20260903194416 | 68 | 172 | 1.7 | 3.5 | 0.00 | 0.00 | 0.00 | ||
| 20260903194014 | 68 | 157 | 2.6 | 3.5 | 0.00 | 0.00 | 0.00 | ||
| 20260903193612 | 67 | 157 | 1.7 | 2.6 | 0.00 | 0.00 | 0.00 | ||
| 20260903193211 | 68 | 161 | 1.7 | 3.5 | 0.00 | 0.00 | 0.00 | ||
| 20260903192809 | 69 | 186 | 1.7 | 3.5 | 0.00 | 0.00 | 0.00 | ||
| 20260903192407 | 69 | 202 | 1.7 | 1.7 | 0.00 | 0.00 | 0.00 | ||
| 20260903192006 | 68 | 202 | 2.6 | 3.5 | 0.00 | 0.00 | 0.00 | ||
| 20260903191156 | 68 | 202 | 1.7 | 2.6 | 0.00 | 0.00 | 0.00 | ||
| 20260903190753 | 67 | 202 | 0.9 | 1.7 | 0.00 | 0.00 | 0.00 | ||
| 20260903190352 | 68 | 202 | 0.9 | 1.7 | 0.00 | 0.00 | 0.00 | ||
| 20260903185951 | 68 | 202 | 0.9 | 1.7 | 0.00 | 0.00 | 0.00 | ||
| 20260903185550 | 69 | 202 | 0.9 | 2.6 | 0.00 | 0.00 | 0.00 | ||
| 20260903185147 | 69 | 242 | 1.7 | 2.6 | 0.00 | 0.00 | 0.00 | ||
| 20260903184746 | 70 | 248 | 1.7 | 2.6 | 0.00 | 0.00 | 0.00 | ||
| 20260903184345 | 71 | 248 | 0.9 | 2.6 | 0.00 | 0.00 | 0.00 | ||
| 20260903183944 | 72 | 248 | 0.9 | 1.7 | 0.00 | 0.00 | 0.00 | ||
| 20260903183542 | 72 | 248 | 0.9 | 1.7 | 0.00 | 0.00 | 0.00 | ||
| 20260903183133 | 72 | 248 | 0.9 | 1.7 | 0.00 | 0.00 | 0.00 | ||
| 20260903182731 | 71 | 248 | 0.0 | 0.9 | 0.00 | 0.00 | 0.00 | ||
| 20260903182330 | 72 | 248 | 0.9 | 1.7 | 0.00 | 0.00 | 0.00 | ||
| 20260903181929 | 72 | 248 | 0.9 | 2.6 | 0.00 | 0.00 | 0.00 | ||
| 20260903181526 | 72 | 267 | 0.9 | 1.7 | 0.00 | 0.00 | 0.00 | ||
| 20260903181125 | 71 | 270 | 0.9 | 1.7 | 0.00 | 0.00 | 0.00 | ||
| 20260903180723 | 71 | 270 | 0.9 | 1.7 | 0.00 | 0.00 | 0.00 | ||
| 20260903180322 | 70 | 270 | 0.9 | 2.6 | 0.00 | 0.00 | 0.00 | ||
| 20260903175920 | 69 | 270 | 1.7 | 2.6 | 0.00 | 0.00 | 0.00 | ||
| 20260903175518 | 69 | 270 | 2.6 | 3.5 | 0.00 | 0.00 | 0.00 | ||
| 20260903175110 | 71 | 266 | 2.6 | 4.3 | 0.00 | 0.00 | 0.00 | ||
| 20260903174708 | 73 | 248 | 1.7 | 1.7 | 0.00 | 0.00 | 0.00 | ||
| 20260903174306 | 73 | 268 | 1.7 | 2.6 | 0.00 | 0.00 | 0.00 | ||
| 20260903173905 | 71 | 270 | 0.0 | 0.9 | 0.00 | 0.00 | 0.00 | ||
| 20260903173503 | 72 | 270 | 0.0 | 1.7 | 0.00 | 0.00 | 0.00 | ||
| 20260903173103 | 74 | 270 | 0.9 | 1.7 | 0.00 | 0.00 | 0.00 | ||
| 20260903172701 | 72 | 270 | 0.0 | 0.0 | 0.00 | 0.00 | 0.00 | ||
| 20260903172258 | 73 | 270 | 0.0 | 0.9 | 0.00 | 0.00 | 0.00 | ||
| 20260903171858 | 74 | 270 | 0.0 | 0.9 | 0.00 | 0.00 | 0.00 | ||
| 20260903171456 | 74 | 270 | 0.9 | 0.9 | 0.00 | 0.00 | 0.00 | ||
| 20260903171048 | 73 | 270 | 0.0 | 0.9 | 0.00 | 0.00 | 0.00 | ||
| 20260903170244 | 72 | 270 | 0.9 | 1.7 | 0.00 | 0.00 | 0.00 | ||
| 20260903165843 | 72 | 270 | 0.9 | 1.7 | 0.00 | 0.00 | 0.00 | ||
| 20260903165441 | 73 | 270 | 0.0 | 1.7 | 0.00 | 0.00 | 0.00 | ||
| 20260903165039 | 74 | 270 | 0.0 | 0.0 | 0.00 | 0.00 | 0.00 | ||
| 20260903164637 | 74 | 270 | 0.9 | 1.7 | 0.00 | 0.00 | 0.00 | ||
| 20260903164236 | 75 | 270 | 1.7 | 1.7 | 0.00 | 0.00 | 0.00 | ||
| 20260903163835 | 78 | 270 | 0.9 | 1.7 | 0.00 | 0.00 | 0.00 | ||
| 20260903163432 | 76 | 270 | 0.9 | 1.7 | 0.00 | 0.00 | 0.00 | ||
| 20260903163024 | 75 | 283 | 1.7 | 2.6 | 0.00 | 0.00 | 0.00 | ||
| 20260903162622 | 78 | 292 | 0.9 | 1.7 | 0.00 | 0.00 | 0.00 | ||
| 20260903162221 | 81 | 292 | 0.0 | 0.0 | 0.00 | 0.00 | 0.00 | ||
| 20260903161820 | 80 | 292 | 0.0 | 0.9 | 0.00 | 0.00 | 0.00 | ||
| 20260903161417 | 76 | 292 | 0.9 | 0.9 | 0.00 | 0.00 | 0.00 | ||
| 20260903161016 | 76 | 292 | 0.0 | 0.0 | 0.00 | 0.00 | 0.00 | ||
| 20260903160614 | 77 | 292 | 0.0 | 1.7 | 0.00 | 0.00 | 0.00 | ||
| 20260903160213 | 75 | 292 | 0.0 | 0.9 | 0.00 | 0.00 | 0.00 | ||
| 20260903155811 | 74 | 292 | 0.0 | 0.9 | 0.00 | 0.00 | 0.00 | ||
| 20260903155410 | 74 | 292 | 0.0 | 1.7 | 0.00 | 0.00 | 0.00 | ||
| 20260903155001 | 74 | 292 | 0.9 | 1.7 | 0.00 | 0.00 | 0.00 | ||
| 20260903154600 | 74 | 292 | 0.0 | 0.9 | 0.00 | 0.00 | 0.00 | ||
| 20260903154157 | 74 | 292 | 0.0 | 0.0 | 0.00 | 0.00 | 0.00 | ||
| 20260903153757 | 74 | 292 | 0.0 | 1.7 | 0.00 | 0.00 | 0.00 | ||
| 20260903153355 | 74 | 292 | 0.9 | 1.7 | 0.00 | 0.00 | 0.00 | ||
| 20260903152954 | 74 | 292 | 1.7 | 2.6 | 0.00 | 0.00 | 0.00 | ||
| 20260903152551 | 74 | 292 | 0.9 | 3.5 | 0.00 | 0.00 | 0.00 | ||
| 20260903152150 | 74 | 305 | 1.7 | 3.5 | 0.00 | 0.00 | 0.00 | ||
| 20260903151749 | 74 | 299 | 2.6 | 3.5 | 0.00 | 0.00 | 0.00 | ||
| 20260903151347 | 75 | 292 | 1.7 | 1.7 | 0.00 | 0.00 | 0.00 | ||
| 20260903150939 | 74 | 270 | 1.7 | 2.6 | 0.00 | 0.00 | 0.00 | ||
| 20260903150536 | 74 | 270 | 1.7 | 2.6 | 0.00 | 0.00 | 0.00 | ||
| 20260903150135 | 75 | 270 | 2.6 | 4.3 | 0.00 | 0.00 | 0.00 | ||
| 20260903145734 | 76 | 315 | 0.0 | 1.7 | 0.00 | 0.00 | 0.00 | ||
| 20260903145332 | 75 | 315 | 0.9 | 1.7 | 0.00 | 0.00 | 0.00 | ||
| 20260903144930 | 75 | 315 | 0.9 | 3.5 | 0.00 | 0.00 | 0.00 | ||
| 20260903144528 | 74 | 312 | 0.9 | 2.6 | 0.00 | 0.00 | 0.00 | ||
| 20260903144127 | 74 | 305 | 2.6 | 4.3 | 0.00 | 0.00 | 0.00 | ||
| 20260903143726 | 74 | 315 | 1.7 | 2.6 | 0.00 | 0.00 | 0.00 | ||
| 20260903143323 | 74 | 270 | 0.9 | 1.7 | 0.00 | 0.00 | 0.00 | ||
| 20260903142915 | 74 | 271 | 1.7 | 2.6 | 0.00 | 0.00 | 0.00 | ||
| 20260903142513 | 73 | 288 | 3.5 | 5.2 | 0.00 | 0.00 | 0.00 | ||
| 20260903142113 | 75 | 313 | 1.7 | 3.5 | 0.00 | 0.00 | 0.00 | ||
| 20260903141710 | 74 | 289 | 1.7 | 3.5 | 0.00 | 0.00 | 0.00 | ||
| 20260903141309 | 74 | 278 | 4.3 | 7.0 | 0.00 | 0.00 | 0.00 | ||
| 20260903140908 | 75 | 290 | 3.5 | 7.0 | 0.00 | 0.00 | 0.00 | ||
| 20260903140506 | 74 | 298 | 3.5 | 7.0 | 0.00 | 0.00 | 0.00 | ||
| 20260903140105 | 75 | 279 | 5.2 | 9.6 | 0.00 | 0.00 | 0.00 | ||
| 20260903135703 | 75 | 316 | 3.5 | 7.0 | 0.00 | 0.00 | 0.00 | ||
| 20260903135301 | 75 | 0 | 2.6 | 3.5 | 0.00 | 0.00 | 0.00 | ||
| 20260903134853 | 76 | 300 | 2.6 | 7.8 | 0.00 | 0.00 | 0.00 | ||
| 20260903134451 | 75 | 287 | 3.5 | 5.2 | 0.00 | 0.00 | 0.00 | ||
| 20260903134049 | 76 | 304 | 2.6 | 5.2 | 0.00 | 0.00 | 0.00 | ||
| 20260903133648 | 75 | 282 | 1.7 | 2.6 | 0.00 | 0.00 | 0.00 | ||
| 20260903133246 | 75 | 255 | 1.7 | 3.5 | 0.00 | 0.00 | 0.00 | ||
| 20260903132845 | 76 | 291 | 1.7 | 3.5 | 0.00 | 0.00 | 0.00 | ||
| 20260903132442 | 76 | 276 | 0.9 | 2.6 | 0.00 | 0.00 | 0.00 | ||
| 20260903132040 | 76 | 276 | 1.7 | 3.5 | 0.00 | 0.00 | 0.00 | ||
| 20260903131639 | 74 | 292 | 2.6 | 3.5 | 0.00 | 0.00 | 0.00 | ||
| 20260903131237 | 74 | 324 | 1.7 | 2.6 | 0.00 | 0.00 | 0.00 | ||
| 20260903130828 | 75 | 279 | 3.5 | 4.3 | 0.00 | 0.00 | 0.00 | ||
| 20260903130426 | 75 | 284 | 2.6 | 5.2 | 0.00 | 0.00 | 0.00 | ||
| 20260903130025 | 75 | 314 | 1.7 | 2.6 | 0.00 | 0.00 | 0.00 | ||
| 20260903125624 | 74 | 321 | 1.7 | 4.3 | 0.00 | 0.00 | 0.00 | ||
| 20260903125222 | 73 | 338 | 0.0 | 1.7 | 0.00 | 0.00 | 0.00 | ||
| 20260903124820 | 73 | 335 | 1.7 | 5.2 | 0.00 | 0.00 | 0.00 | ||
| 20260903124418 | 73 | 314 | 1.7 | 3.5 | 0.00 | 0.00 | 0.00 | ||
| 20260903124017 | 73 | 323 | 1.7 | 4.3 | 0.00 | 0.00 | 0.00 | ||
| 20260903123616 | 73 | 310 | 2.6 | 4.3 | 0.00 | 0.00 | 0.00 | ||
| 20260903123213 | 72 | 328 | 1.7 | 3.5 | 0.00 | 0.00 | 0.00 | ||
| 20260903122805 | 72 | 341 | 2.6 | 4.3 | 0.00 | 0.00 | 0.00 | ||
| 20260903122403 | 73 | 315 | 1.7 | 2.6 | 0.00 | 0.00 | 0.00 | ||
| 20260903122002 | 72 | 312 | 1.7 | 2.6 | 0.00 | 0.00 | 0.00 | ||
| 20260903121600 | 72 | 290 | 3.5 | 5.2 | 0.00 | 0.00 | 0.00 | ||
| 20260903121158 | 72 | 300 | 3.5 | 6.1 | 0.00 | 0.00 | 0.00 | ||
| 20260903120757 | 73 | 315 | 2.6 | 5.2 | 0.00 | 0.00 | 0.00 | ||
| 20260903120355 | 73 | 305 | 2.6 | 5.2 | 0.00 | 0.00 | 0.00 | ||
| 20260903115953 | 73 | 301 | 5.2 | 7.8 | 0.00 | 0.00 | 0.00 | ||
| 20260903115552 | 73 | 332 | 2.6 | 3.5 | 0.00 | 0.00 | 0.00 | ||
| 20260903115150 | 73 | 306 | 3.5 | 7.0 | 0.00 | 0.00 | 0.00 | ||
| 20260903114743 | 73 | 322 | 3.5 | 7.8 | 0.00 | 0.00 | 0.00 | ||
| 20260903114341 | 73 | 303 | 6.1 | 7.8 | 0.00 | 0.00 | 0.00 | ||
| 20260903113939 | 74 | 295 | 6.1 | 10.4 | 0.00 | 0.00 | 0.00 | ||
| 20260903112734 | 76 | 278 | 5.2 | 7.8 | 0.00 | 0.00 | 0.00 | ||
| 20260903112331 | 77 | 268 | 6.1 | 8.7 | 0.00 | 0.00 | 0.00 | ||
| 20260903111930 | 78 | 261 | 6.1 | 8.7 | 0.00 | 0.00 | 0.00 | ||
| 20260903111529 | 78 | 244 | 7.8 | 9.6 | 0.00 | 0.00 | 0.00 | ||
| 20260903111127 | 78 | 209 | 7.8 | 12.2 | 0.00 | 0.00 | 0.00 | ||
| 20260903110718 | 77 | 232 | 7.0 | 12.2 | 0.00 | 0.00 | 0.00 | ||
| 20260903110316 | 76 | 260 | 4.3 | 6.1 | 0.00 | 0.00 | 0.00 | ||
| 20260903105915 | 77 | 228 | 5.2 | 7.8 | 0.00 | 0.00 | 0.00 | ||
| 20260903105514 | 77 | 252 | 6.1 | 8.7 | 0.00 | 0.00 | 0.00 | ||
| 20260903105111 | 77 | 213 | 6.1 | 12.2 | 0.00 | 0.00 | 0.00 | ||
| 20260903104710 | 77 | 232 | 2.6 | 6.1 | 0.00 | 0.00 | 0.00 | ||
| 20260903104308 | 75 | 188 | 3.5 | 7.0 | 0.00 | 0.00 | 0.00 | ||
| 20260903103506 | 77 | 216 | 3.5 | 5.2 | 0.00 | 0.00 | 0.00 | ||
| 20260903103103 | 78 | 224 | 2.6 | 4.3 | 0.00 | 0.00 | 0.00 | ||
| 20260903102655 | 76 | 199 | 3.5 | 7.8 | 0.00 | 0.00 | 0.00 | ||
| 20260903102254 | 76 | 231 | 1.7 | 4.3 | 0.00 | 0.00 | 0.00 | ||
| 20260903101853 | 75 | 228 | 2.6 | 4.3 | 0.00 | 0.00 | 0.00 | ||
| 20260903101450 | 75 | 217 | 4.3 | 7.8 | 0.00 | 0.00 | 0.00 | ||
| 20260903101049 | 76 | 213 | 5.2 | 7.8 | 0.00 | 0.00 | 0.00 | ||
| 20260903100648 | 75 | 230 | 3.5 | 5.2 | 0.00 | 0.00 | 0.00 | ||
| 20260903095844 | 76 | 260 | 2.6 | 6.1 | 0.00 | 0.00 | 0.00 | ||
| 20260903095443 | 75 | 237 | 2.6 | 7.0 | 0.00 | 0.00 | 0.00 | ||
| 20260903095041 | 75 | 202 | 2.6 | 5.2 | 0.00 | 0.00 | 0.00 | ||
| 20260903094633 | 75 | 263 | 3.5 | 5.2 | 0.00 | 0.00 | 0.00 | ||
| 20260903094230 | 74 | 315 | 0.9 | 2.6 | 0.00 | 0.00 | 0.00 | ||
| 20260903093829 | 74 | 311 | 1.7 | 4.3 | 0.00 | 0.00 | 0.00 | ||
| 20260903093428 | 75 | 264 | 2.6 | 5.2 | 0.00 | 0.00 | 0.00 | ||
| 20260903093026 | 75 | 263 | 3.5 | 5.2 | 0.00 | 0.00 | 0.00 | ||
| 20260903092625 | 74 | 263 | 3.5 | 6.1 | 0.00 | 0.00 | 0.00 | ||
| 20260903092222 | 74 | 267 | 5.2 | 7.8 | 0.00 | 0.00 | 0.00 | ||
| 20260903091821 | 73 | 275 | 3.5 | 5.2 | 0.00 | 0.00 | 0.00 | ||
| 20260903091420 | 74 | 270 | 1.7 | 5.2 | 0.00 | 0.00 | 0.00 | ||
| 20260903091019 | 74 | 263 | 2.6 | 4.3 | 0.00 | 0.00 | 0.00 | ||
| 20260903090609 | 74 | 254 | 2.6 | 7.0 | 0.00 | 0.00 | 0.00 | ||
| 20260903090207 | 73 | 260 | 5.2 | 7.8 | 0.00 | 0.00 | 0.00 | ||
| 20260903085806 | 74 | 220 | 6.1 | 8.7 | 0.00 | 0.00 | 0.00 | ||
| 20260903085405 | 74 | 217 | 4.3 | 7.0 | 0.00 | 0.00 | 0.00 | ||
| 20260903085002 | 73 | 238 | 3.5 | 7.0 | 0.00 | 0.00 | 0.00 | ||
| 20260903084601 | 74 | 221 | 4.3 | 7.8 | 0.00 | 0.00 | 0.00 | ||
| 20260903084200 | 74 | 220 | 2.6 | 3.5 | 0.00 | 0.00 | 0.00 | ||
| 20260903083759 | 74 | 183 | 1.7 | 3.5 | 0.00 | 0.00 | 0.00 | ||
| 20260903083357 | 74 | 195 | 2.6 | 5.2 | 0.00 | 0.00 | 0.00 | ||
| 20260903082955 | 73 | 218 | 3.5 | 5.2 | 0.00 | 0.00 | 0.00 | ||
| 20260903082547 | 73 | 206 | 3.5 | 5.2 | 0.00 | 0.00 | 0.00 | ||
| 20260903082145 | 74 | 202 | 1.7 | 3.5 | 0.00 | 0.00 | 0.00 | ||
| 20260903081744 | 73 | 217 | 1.7 | 4.3 | 0.00 | 0.00 | 0.00 | ||
| 20260903081342 | 73 | 194 | 1.7 | 4.3 | 0.00 | 0.00 | 0.00 | ||
| 20260903080940 | 72 | 157 | 1.7 | 4.3 | 0.00 | 0.00 | 0.00 | ||
| 20260903080539 | 72 | 157 | 0.9 | 2.6 | 0.00 | 0.00 | 0.00 | ||
| 20260903080137 | 72 | 157 | 1.7 | 3.5 | 0.00 | 0.00 | 0.00 | ||
| 20260903075735 | 73 | 157 | 0.9 | 1.7 | 0.00 | 0.00 | 0.00 | ||
| 20260903075334 | 73 | 157 | 1.7 | 3.5 | 0.00 | 0.00 | 0.00 | ||
| 20260903074932 | 72 | 157 | 2.6 | 3.5 | 0.00 | 0.00 | 0.00 | ||
| 20260903074524 | 73 | 157 | 1.7 | 2.6 | 0.00 | 0.00 | 0.00 | ||
| 20260903074121 | 72 | 157 | 1.7 | 3.5 | 0.00 | 0.00 | 0.00 | ||
| 20260903073720 | 72 | 128 | 2.6 | 3.5 | 0.00 | 0.00 | 0.00 | ||
| 20260903073319 | 72 | 135 | 2.6 | 4.3 | 0.00 | 0.00 | 0.00 | ||
| 20260903072917 | 72 | 135 | 2.6 | 5.2 | 0.00 | 0.00 | 0.00 | ||
| 20260903072515 | 71 | 135 | 1.7 | 3.5 | 0.00 | 0.00 | 0.00 | ||
| 20260903072113 | 71 | 144 | 1.7 | 3.5 | 0.00 | 0.00 | 0.00 |